JCSAT-110A (JCSAT-15)

Last updated on Sun Apr 12 2026 00:02:54 GMT+0000 (Coordinated Universal Time)

1 41903U 16082A 26101.47119509 .00000000 00000+0 00000+0 0 9998 2 41903 0.0190 193.7212 0000788 224.8770 60.7904 1.00266812 34095
UTC large
Height (km)
Speed (km/s)
/
Latitude / Longitude
Inclination (degrees)
Orbital Period (minutes)
Azimuth
Elevation
Range (km)
Doppler Factor

Next 0 passes for location: London (51.5072 / 0.1276)

Sorry there are no passes over London.
JCSAT-110A (JCSAT-15)